Location: Newark
(30.4994°N, 96.8283°W)
Time: 05:16:40
(UTC+00:00)

Envisat - Pass Details

Date: 28 November 2019
Orbit: 764 x 766 km, 98.1° (Epoch: 12 December)

Event Time Altitude Azimuth Distance (km) Brightness Sun altitude
Rises 23:55:41 0° 146° (SE) 3,218 6.1 -6.7°
Reaches altitude 10° 23:58:08 10° 137° (SE) 2,295 5.3 -7.2°
Maximum altitude 00:02:42 35° 72° (ENE) 1,211 3.5 -8.1°
Drops below altitude 10° 00:07:17 10° 8° (N) 2,304 5.2 -9.0°
Sets 00:09:45 0° 359° (N) 3,234 6.0 -9.5°
